Location: Fours
(44.3167°N, 6.7000°E)
Time: 22:38:30
(UTC+00:00)

Cosmos 2218 Rocket - Pass Details

Date: 05 June 2022
Orbit: 956 x 1005 km, 82.9° (Epoch: 01 July)

Event Time Altitude Azimuth Distance (km) Brightness Sun altitude
Rises 00:55:30 0° 357° (N) 3,691 8.2 -20.5°
Reaches altitude 10° 00:58:10 10° 4° (N) 2,746 7.4 -20.3°
Maximum altitude 01:04:09 43° 75° (ENE) 1,359 5.0 -19.9°
Drops below altitude 10° 01:10:08 10° 146° (SE) 2,759 6.1 -19.5°
Enters shadow 01:10:19 - 147° (SSE) 2,820 6.1 -19.4°
